[[{"header":{"parameterUnit":"m.s-1","parameterCategory":1,"la1":30.2991,"la2":30.254,"lo1":-89.0895,"lo2":-89.0444,"dy":0.0017,"dx":0.0017,"nx":28,"ny":28,"refTime":"2023-10-25T03:00:00:Z","depth":0,"parameterNumber":2,"parameterNumberName":"U-component_of_WINDS"},"data":[0,0,0,0,0,0,0,0,0,0,0,0,0,0,0,0,0,0,0,0,0,0,0,0,0,0,0,0,0,0,0,0,0,0,0,0,0,0,0,0,0,0,0,0,0,0,0,0,0,0,0,0,0,0,0,0,0,0,-6.0657,-6.0658,0,-6.0791,-6.0793,-6.0794,-6.0746,-6.0743,-6.074,-6.0737,-6.0871,-6.0878,-6.0884,0,0,0,0,0,0,0,0,0,0,0,0,0,-6.0354,-6.036,-6.0656,-6.0658,-6.066,-6.0791,-6.0793,-6.0795,-6.0746,-6.0743,-6.0739,-6.0736,-6.0869,-6.0877,-6.0885,0,0,0,0,0,0,0,0,0,0,0,0,0,-6.0487,-6.0362,-6.0656,-6.0652,-6.0652,-6.0791,-6.0793,-6.0795,-6.0747,-6.0743,-6.0738,-6.0734,-6.0867,-6.0876,-6.0886,-6.1035,0,0,-6.0915,-6.0919,0,0,0,0,0,0,0,0,-6.0479,-6.0498,-6.0651,-6.0652,-6.0653,-6.0747,-6.0736,-6.0876,-6.0748,-6.0711,-6.0737,-6.0732,-6.0834,-6.0846,-6.0881,-6.1042,-6.1047,-6.0916,-6.0922,-6.0926,-6.0928,0,0,0,0,0,0,0,-6.047,-6.0492,-6.071,-6.0653,-6.0655,-6.0642,-6.0656,-6.0762,-6.0796,-6.0714,-6.0711,-6.0728,-6.0833,-6.0872,-6.0883,-6.1049,-6.0916,-6.0924,-6.093,-6.0934,-6.1339,-6.1344,0,0,0,0,0,0,-6.0461,-6.0484,-6.0705,-6.0714,-6.0554,-6.0651,-6.0666,-6.0722,-6.0795,-6.0802,-6.0731,-6.0725,-6.0857,-6.0872,-6.0888,-6.1067,-6.0926,-6.0935,-6.094,-6.1334,-6.134,-6.1346,0,0,0,0,0,0,-6.0454,-6.0481,-6.07,-6.0598,-6.0625,-6.0661,-6.0723,-6.0727,-6.0765,-6.0808,-6.0813,-6.0764,-6.0854,-6.0875,-6.0999,-6.1071,-6.0939,-6.0948,-6.1328,-6.1336,-6.1343,-6.1426,0,0,0,0,0,0,-6.0446,-6.0479,-6.0537,-6.06,-6.0631,-6.081,-6.0728,-6.0733,-6.0782,-6.0775,-6.084,-6.0847,-6.0852,-6.0985,-6.1009,-6.1082,-6.0955,-6.1322,-6.1332,-6.1341,-6.1417,-6.1436,-6.1452,0,0,0,0,0,-6.0435,-6.0554,-6.054,-6.0567,-6.0704,-6.0814,-6.0832,-6.0837,-6.0788,-6.0846,-6.0873,-6.0844,-6.106,-6.0998,-6.1024,-6.1101,-6.1317,-6.1329,-6.134,-6.141,-6.1432,-6.1451,0,0,0,0,0,0,-6.0496,-6.0562,-6.0547,-6.069,-6.0747,-6.0806,-6.0878,-6.0861,-6.0932,-6.0922,-6.0925,-6.094,-6.1068,-6.1097,-6.1028,-6.125,-6.1181,-6.1198,-6.1225,-6.1247,-6.1264,-6.1252,-6.0963,0,0,0,0,0,-6.0527,-6.0612,-6.0664,-6.0786,-6.0815,-6.0842,-6.089,-6.089,-6.0948,-6.0972,-6.1009,-6.1066,-6.1146,-6.1199,-6.1275,-6.1423,-6.1435,-6.1488,-6.1506,-6.1519,-6.1533,-6.1612,-6.1636,-6.1383,-6.1383,-6.1383,0,0,-6.059,-6.0636,-6.0689,-6.0799,-6.0843,-6.093,-6.0863,-6.0957,-6.1021,-6.0986,-6.1105,-6.1135,-6.1199,-6.1335,-6.1397,-6.1364,-6.1606,-6.1534,-6.1545,-6.1551,-6.1626,-6.165,-6.1671,-6.1391,-6.1389,-6.1388,0,0,-6.0748,-6.0793,-6.0898,-6.0944,-6.1013,-6.103,-6.1056,-6.1118,-6.1136,-6.1257,-6.1232,-6.1308,-6.1447,-6.1493,-6.1535,-6.1713,-6.1688,-6.1738,-6.1826,-6.1903,-6.1923,-6.1941,-6.2002,-6.2024,-6.1752,-6.1753,-6.1753,0,-6.0817,-6.0947,-6.0954,-6.1051,-6.1099,-6.1074,-6.118,-6.1224,-6.1313,-6.1347,-6.1309,-6.1483,-6.1524,-6.167,-6.1714,-6.1749,-6.1777,-6.1729,-6.192,-6.1938,-6.1954,-6.2013,-6.2036,-6.1758,-6.1757,-6.1757,-6.1756,0,-6.1028,-6.1119,-6.1196,-6.1284,-6.1342,-6.1443,-6.1464,-6.1521,-6.1517,-6.1538,-6.1661,-6.171,-6.1796,-6.1831,-6.1827,-6.1977,-6.1954,-6.1919,-6.1849,-6.1984,-6.2038,-6.2061,-6.1766,-6.1764,-6.1762,-6.1761,0,0,-6.1224,-6.1317,-6.1345,-6.1385,-6.1459,-6.1529,-6.1629,-6.1715,-6.1763,-6.1826,-6.1908,-6.2028,-6.1996,-6.2043,-6.2045,-6.2113,-6.2248,-6.2069,-6.207,-6.2098,-6.2414,-6.2438,-6.2464,-6.2234,-6.2239,-6.2242,-6.2408,0,-6.1387,-6.1563,-6.1573,-6.1732,-6.1816,-6.1794,-6.1881,-6.1936,-6.1959,-6.2033,-6.2058,-6.2142,-6.2094,-6.2123,-6.2189,-6.2218,-6.2311,-6.2206,-6.2308,-6.2312,-6.229,-6.2493,-6.2519,-6.2673,-6.243,-6.2434,-6.2436,0,-6.1598,-6.167,-6.1838,-6.1901,-6.1936,-6.2014,-6.2093,-6.2165,-6.2226,-6.2238,-6.2293,-6.2285,-6.2386,-6.2316,-6.2455,-6.2383,-6.2426,-6.2447,-6.2453,-6.2459,-6.238,-6.2503,-6.2722,-6.2744,-6.2471,-6.2468,-6.2465,0,-6.1722,-6.186,-6.1978,-6.2013,-6.2091,-6.2146,-6.218,-6.2238,-6.2289,-6.2358,-6.239,-6.247,-6.2513,-6.2575,-6.2588,-6.2536,-6.2726,-6.2658,-6.2737,-6.2737,-6.2775,-6.2772,-6.3001,-6.2808,-6.2808,-6.2808,-6.2807,0,-6.19,-6.2002,-6.2035,-6.2107,-6.2222,-6.2233,-6.2346,-6.2376,-6.2428,-6.2505,-6.2492,-6.2564,-6.2579,-6.2655,-6.2666,-6.2778,-6.2798,-6.2809,-6.281,-6.2809,-6.2807,-6.2834,-6.2822,-6.2814,-6.2812,-6.2811,-6.281,0,-6.2055,-6.2081,-6.2208,-6.2272,-6.2291,-6.2372,-6.2426,-6.2495,-6.2518,-6.2616,-6.2639,-6.2675,-6.2763,-6.2784,-6.2888,-6.2896,-6.3027,-6.302,-6.3007,-6.3005,-6.3082,-6.3074,-6.3335,-6.3369,-6.3156,-6.3159,-6.316,0,-6.2165,-6.2244,-6.2317,-6.2368,-6.2406,-6.2489,-6.2541,-6.2556,-6.2611,-6.2688,-6.2747,-6.2834,-6.2904,-6.3046,-6.308,-6.316,-6.3152,-6.3238,-6.3163,-6.3159,-6.3149,-6.3143,-6.315,-6.3251,-6.3253,-6.3255,-6.3256,0,-6.2356,-6.2366,-6.2442,-6.2524,-6.2588,-6.2652,-6.2714,-6.2757,-6.278,-6.2842,-6.2933,-6.2987,-6.3095,-6.318,-6.3261,-6.3295,-6.3279,-6.3281,-6.3302,-6.3299,-6.3287,-6.3292,-6.3042,-6.3273,-6.3272,-6.327,-6.3269,-6.3269,-6.249,-6.2559,-6.2622,-6.2707,-6.2756,-6.2815,-6.2882,-6.2915,-6.2992,-6.3081,-6.3085,-6.3184,-6.3243,-6.335,-6.339,-6.3466,-6.3439,-6.3472,-6.3479,-6.3486,-6.3492,-6.3279,-6.3481,-6.348,-6.348,-6.348,-6.3479,0,-6.2678,-6.2718,-6.2798,-6.2885,-6.2953,-6.2936,-6.3003,-6.306,-6.3147,-6.3206,-6.3275,-6.3379,-6.3463,-6.3505,-6.3588,-6.3641,-6.3635,-6.3661,-6.3656,-6.3664,-6.3512,-6.3484,-6.3664,-6.3664,-6.3664,-6.3664,-6.3664,-6.3664,-6.2784,-6.2899,-6.2917,-6.3056,-6.3095,-6.3192,-6.3232,-6.3286,-6.3332,-6.3449,-6.352,-6.3548,-6.3599,-6.3686,-6.3761,-6.3771,-6.3801,-6.383,-6.3836,-6.3693,-6.3674,-6.3656,-6.3629,-6.3837,-6.3838,-6.3981,-6.3982,-6.3983]},{"header":{"parameterUnit":"m.s-1","parameterCategory":1,"la1":30.2991,"la2":30.254,"lo1":-89.0895,"lo2":-89.0444,"dy":0.0017,"dx":0.0017,"nx":28,"ny":28,"refTime":"2023-10-25T03:00:00:Z","depth":0,"parameterNumber":3,"parameterNumberName":"V-component_of_WINDS"},"data":[0,0,0,0,0,0,0,0,0,0,0,0,0,0,0,0,0,0,0,0,0,0,0,0,0,0,0,0,0,0,0,0,0,0,0,0,0,0,0,0,0,0,0,0,0,0,0,0,0,0,0,0,0,0,0,0,0,0,2.5848,2.585,0,2.6007,2.6009,2.6011,2.6028,2.6026,2.6025,2.6023,2.6183,2.6189,2.6194,0,0,0,0,0,0,0,0,0,0,0,0,0,2.5559,2.5564,2.5848,2.585,2.5852,2.6007,2.6009,2.6011,2.6028,2.6026,2.6024,2.6023,2.6181,2.6188,2.6195,0,0,0,0,0,0,0,0,0,0,0,0,0,2.5698,2.5566,2.5848,2.588,2.5884,2.6007,2.6009,2.6012,2.6029,2.6026,2.6024,2.6022,2.6179,2.6187,2.6196,2.6297,0,0,2.6222,2.6226,0,0,0,0,0,0,0,0,2.569,2.5708,2.5873,2.5878,2.5883,2.5995,2.5966,2.6107,2.6029,2.5974,2.6023,2.602,2.6122,2.6136,2.6171,2.6305,2.6311,2.6223,2.6228,2.6232,2.6234,0,0,0,0,0,0,0,2.568,2.5702,2.5911,2.5875,2.5881,2.5885,2.5902,2.5993,2.6059,2.5978,2.598,2.5999,2.6125,2.6162,2.6174,2.6314,2.6223,2.623,2.6236,2.6239,2.6541,2.6544,0,0,0,0,0,0,2.5665,2.5693,2.5906,2.5916,2.5778,2.5893,2.5912,2.5962,2.6059,2.6071,2.6001,2.5999,2.6149,2.6164,2.618,2.6306,2.6232,2.624,2.6245,2.6538,2.6542,2.6545,0,0,0,0,0,0,2.5659,2.5684,2.59,2.5805,2.5833,2.59,2.5956,2.5966,2.6004,2.6075,2.6087,2.6027,2.6147,2.6168,2.6269,2.6312,2.6244,2.6252,2.6535,2.6539,2.6543,2.6559,0,0,0,0,0,0,2.565,2.5681,2.5721,2.5806,2.5838,2.5986,2.5959,2.5971,2.6019,2.6018,2.6103,2.6115,2.6147,2.6256,2.6277,2.6323,2.6258,2.6531,2.6537,2.6542,2.6554,2.6563,2.657,0,0,0,0,0,2.564,2.5717,2.5722,2.5748,2.5889,2.5988,2.6006,2.6043,2.6022,2.6062,2.6109,2.6112,2.6304,2.6266,2.629,2.6339,2.6529,2.6535,2.6541,2.6551,2.6561,2.657,0,0,0,0,0,0,2.5634,2.5729,2.5736,2.5843,2.5908,2.5991,2.6042,2.6052,2.6123,2.6119,2.616,2.618,2.6279,2.6319,2.6275,2.6443,2.6414,2.6426,2.6413,2.6423,2.6431,2.6419,2.6266,0,0,0,0,0,2.5645,2.5719,2.5798,2.5885,2.5918,2.5975,2.6019,2.6042,2.611,2.6137,2.6191,2.6256,2.6331,2.6379,2.6452,2.6561,2.658,2.6606,2.6614,2.662,2.6629,2.6691,2.6704,2.6566,2.6566,2.6566,0,0,2.5669,2.573,2.5774,2.5886,2.5938,2.6014,2.5997,2.6077,2.6133,2.6149,2.6247,2.6289,2.6365,2.647,2.6519,2.6507,2.6672,2.6628,2.6633,2.6639,2.6699,2.6712,2.6724,2.657,2.6569,2.6569,0,0,2.5751,2.5805,2.5884,2.5938,2.6018,2.6056,2.6075,2.6158,2.6187,2.6287,2.6301,2.6368,2.6496,2.655,2.6594,2.67,2.6706,2.6722,2.6763,2.6822,2.6833,2.6843,2.6882,2.6895,2.6731,2.6732,2.6732,0,2.577,2.5885,2.5923,2.6004,2.6053,2.6073,2.6154,2.6203,2.6303,2.6337,2.6321,2.6484,2.6536,2.6655,2.6681,2.6716,2.674,2.6712,2.6829,2.6839,2.6849,2.6886,2.69,2.6733,2.6733,2.6733,2.6733,0,2.5905,2.5984,2.6039,2.6136,2.6192,2.6272,2.6323,2.6374,2.6393,2.6432,2.6535,2.6599,2.6686,2.6716,2.6733,2.6838,2.6828,2.682,2.6792,2.6863,2.6899,2.6913,2.6735,2.6735,2.6734,2.6734,0,0,2.5985,2.6106,2.6125,2.6171,2.6262,2.6324,2.6406,2.6492,2.6536,2.6605,2.6674,2.6784,2.6778,2.6828,2.6853,2.6905,2.6986,2.6891,2.6894,2.6907,2.7106,2.7111,2.7127,2.6991,2.6994,2.6996,2.71,0,2.6078,2.6225,2.6264,2.6388,2.6463,2.6484,2.6555,2.6619,2.6658,2.6727,2.677,2.6848,2.6834,2.6864,2.6917,2.6965,2.7026,2.6958,2.7056,2.7059,2.7037,2.7146,2.7151,2.7246,2.7114,2.7116,2.7118,0,2.6206,2.6279,2.6412,2.6496,2.6529,2.6592,2.6676,2.6741,2.6814,2.6839,2.6897,2.6917,2.7003,2.6971,2.709,2.7043,2.7085,2.7115,2.712,2.713,2.7093,2.716,2.7277,2.7292,2.714,2.7139,2.7137,0,2.6253,2.6384,2.6481,2.652,2.662,2.6664,2.6708,2.6779,2.6829,2.6902,2.6935,2.7016,2.7061,2.7123,2.7165,2.7138,2.7282,2.7253,2.7305,2.7304,2.7334,2.7332,2.7461,2.7361,2.7361,2.7361,2.736,0,2.6352,2.6433,2.6504,2.6564,2.6655,2.6699,2.6788,2.6832,2.6895,2.6964,2.6986,2.705,2.7101,2.7172,2.7205,2.73,2.7319,2.7342,2.735,2.7341,2.7338,2.7369,2.7364,2.7364,2.7364,2.7363,2.7362,0,2.6419,2.647,2.6578,2.6665,2.6688,2.6752,2.6826,2.6885,2.6926,2.7013,2.7035,2.71,2.7185,2.7233,2.7339,2.7361,2.7467,2.7471,2.7443,2.7446,2.7496,2.7491,2.765,2.7674,2.7558,2.7559,2.7559,0,2.648,2.6542,2.6637,2.6685,2.673,2.6807,2.686,2.6906,2.6959,2.7049,2.7097,2.7183,2.7255,2.7389,2.7445,2.7527,2.7534,2.7584,2.7546,2.7535,2.7536,2.7532,2.7539,2.759,2.7591,2.7592,2.7593,0,2.6582,2.6605,2.6679,2.6764,2.6826,2.6895,2.6962,2.7001,2.7058,2.7117,2.7205,2.7261,2.7371,2.7456,2.7543,2.7588,2.76,2.7605,2.7621,2.7612,2.7593,2.7605,2.7461,2.7601,2.76,2.7599,2.7599,2.7599,2.6648,2.6705,2.6782,2.6865,2.6921,2.6985,2.7045,2.7095,2.7169,2.7263,2.7286,2.7379,2.7452,2.757,2.7617,2.769,2.7681,2.7705,2.7711,2.7717,2.7719,2.7582,2.7706,2.7706,2.7706,2.7706,2.7706,0,2.6752,2.6802,2.6879,2.6974,2.704,2.7048,2.7124,2.7178,2.726,2.7328,2.7399,2.7501,2.7585,2.7648,2.7734,2.7781,2.7789,2.7802,2.7799,2.781,2.7721,2.7699,2.7794,2.7794,2.7794,2.7794,2.7794,2.7794,2.6813,2.6912,2.6944,2.7071,2.7121,2.7214,2.7257,2.7316,2.737,2.7484,2.7554,2.7596,2.7662,2.7754,2.7831,2.7848,2.7879,2.7891,2.7908,2.7825,2.7815,2.7806,2.7785,2.7897,2.7897,2.7991,2.7991,2.7992]}]]